Date,TemperatureHighF,TemperatureAvgF,TemperatureLowF,DewpointHighF,DewpointAvgF,DewpointLowF,HumidityHigh,HumidityAvg,HumidityLow,PressureMaxIn,PressureMinIn,WindSpeedMaxMPH,WindSpeedAvgMPH,GustSpeedMaxMPH,PrecipitationSumIn
2013-7-1,84,73,63,61,56,52,78,58,36,30.04,29.93,16,4,20,0.00
2013-7-2,84,73,58,59,54,50,82,54,31,30.08,29.97,14,3,17,0.00
2013-7-3,87,74,58,61,56,52,87,57,31,30.04,29.90,8,2,11,0.00
2013-7-4,91,78,63,66,59,51,82,56,26,29.96,29.84,13,3,16,0.00
2013-7-5,92,81,70,67,63,60,81,56,34,29.93,29.79,14,4,21,0.03
2013-7-6,93,81,68,69,64,62,80,59,38,29.88,29.79,15,3,20,0.00
2013-7-7,93,83,71,70,67,64,80,60,40,29.93,29.86,12,4,18,0.00
2013-7-8,94,83,72,74,70,66,88,67,47,30.00,29.90,11,3,18,0.00
2013-7-9,98,87,76,72,69,63,75,56,40,30.01,29.86,14,4,24,0.00
2013-7-10,100,89,78,71,68,64,66,50,34,29.96,29.82,15,3,20,0.00
2013-7-11,101,88,75,71,68,65,82,56,31,29.89,29.76,19,3,24,0.00
2013-7-12,97,85,74,74,71,69,88,65,41,29.90,29.81,11,3,21,0.00
2013-7-13,97,86,75,71,70,66,87,61,40,29.93,29.80,12,4,17,0.00
2013-7-14,83,70,63,68,66,61,96,88,51,30.00,29.83,14,2,20,0.83
2013-7-15,73,67,62,69,65,61,97,94,84,30.08,29.95,9,3,16,0.21
2013-7-16,84,75,70,74,71,68,97,88,66,30.17,30.05,12,4,15,0.08
2013-7-17,85,78,71,75,72,70,97,83,64,30.20,30.10,12,2,15,0.05
2013-7-18,90,80,70,75,72,69,98,77,52,30.15,29.96,7,0,14,0.03
2013-7-19,93,81,72,74,71,69,96,74,46,29.99,29.85,15,1,17,0.03
2013-7-20,93,81,71,74,71,69,95,73,46,29.91,29.77,13,2,17,0.01
2013-7-21,94,84,72,74,72,69,92,69,49,29.84,29.75,10,2,15,0.00
2013-7-22,94,86,76,77,74,71,87,68,53,29.86,29.75,13,4,20,0.00
2013-7-23,96,87,79,78,74,71,79,67,51,29.87,29.71,12,3,18,0.00
2013-7-24,90,80,66,74,70,64,95,73,53,30.01,29.75,16,3,33,0.56
2013-7-25,84,78,72,73,72,70,96,81,66,30.02,29.91,8,1,11,0.00
2013-7-26,86,78,73,76,72,70,96,83,69,29.96,29.85,18,6,24,0.50
2013-7-27,85,76,69,71,69,67,96,80,57,30.00,29.88,9,2,13,0.00
2013-7-28,87,78,68,72,69,66,96,76,51,29.94,29.83,12,2,16,0.00
2013-7-29,88,80,74,78,73,69,93,80,60,29.93,29.82,13,5,21,0.00
2013-7-30,93,84,76,79,73,66,89,69,54,29.95,29.85,13,3,21,0.00
2013-7-31,93,83,74,78,76,73,96,79,59,29.99,29.89,11,1,15,0.00